Date,TemperatureHighF,TemperatureAvgF,TemperatureLowF,DewpointHighF,DewpointAvgF,DewpointLowF,HumidityHigh,HumidityAvg,HumidityLow,PressureMaxIn,PressureMinIn,WindSpeedMaxMPH,WindSpeedAvgMPH,GustSpeedMaxMPH,PrecipitationSumIn
2014-1-1,51.0,37.9,24.2,37.4,29.6,22.5,95,74,47,30.32,29.97,9,2,11,0.02
2014-1-2,41.3,26.5,16.7,38.9,21.4,11.7,95,81,69,30.48,29.92,25,5,25,0.01
2014-1-3,28.9,20.2,9.3,15.8,12.6,7.2,92,73,55,30.59,30.25,9,2,11,0.00
2014-1-4,45.4,36.0,22.6,34.8,20.1,14.0,71,53,38,30.25,29.99,23,6,23,0.00
2014-1-5,46.7,33.9,10.7,43.8,29.3,2.2,97,83,66,30.26,29.63,27,6,27,0.52
2014-1-6,10.7,4.5,1.8,2.4,-4.4,-11.7,82,66,52,30.61,30.26,21,6,21,0.00
2014-1-7,23.1,12.8,1.3,10.4,3.0,-6.3,82,65,53,30.62,30.39,13,3,13,0.00
2014-1-8,38.4,29.0,20.7,28.7,18.7,10.4,91,66,48,30.52,30.41,11,2,11,0.00
2014-1-9,37.1,33.7,30.8,32.7,29.6,25.2,91,85,62,30.46,30.23,11,1,11,0.12
2014-1-10,50.5,45.1,35.0,49.0,42.8,32.4,97,91,89,30.23,29.65,15,3,15,0.93
2014-1-11,52.6,44.9,36.1,51.1,40.5,34.1,98,85,73,29.97,29.60,14,5,18,0.08
2014-1-12,57.2,44.4,29.2,38.6,34.4,27.9,96,71,45,30.10,29.86,16,3,16,0.00
2014-1-13,53.8,49.5,40.3,50.6,44.4,34.7,98,84,51,29.89,29.74,21,4,21,0.04
2014-1-14,56.1,40.1,29.4,39.2,33.2,23.7,97,78,45,30.09,29.83,18,3,18,0.02
2014-1-15,34.7,27.2,20.4,24.5,18.3,15.7,83,69,59,30.21,30.09,12,2,12,0.00
2014-1-16,45.9,33.9,20.9,34.9,25.1,16.0,92,71,51,30.11,29.78,15,3,21,0.01
2014-1-17,38.7,25.1,16.3,31.5,15.0,7.4,93,66,53,30.19,29.84,22,6,22,0.00
2014-1-18,44.9,31.7,16.0,33.5,21.2,13.1,90,67,42,30.16,29.76,22,4,22,0.00
2014-1-19,45.9,37.6,29.7,32.3,27.1,23.5,82,67,47,30.16,29.91,18,5,18,0.00
2014-1-20,57.3,44.3,35.9,35.2,31.4,27.7,81,62,39,29.98,29.87,9,2,12,0.00
2014-1-21,39.3,23.4,12.9,32.4,16.0,7.8,88,73,55,30.32,29.88,27,5,27,0.00
2014-1-22,31.0,20.8,14.2,19.2,13.2,8.5,88,73,54,30.29,30.09,14,3,14,0.00
2014-1-23,22.7,13.0,4.3,17.4,2.7,-2.3,92,64,43,30.80,30.26,19,4,19,0.00
2014-1-24,27.6,16.2,1.7,6.5,2.6,-1.3,89,59,35,30.80,30.01,21,5,21,0.00
2014-1-25,49.2,35.3,22.0,28.6,17.6,6.6,66,49,34,30.02,29.83,25,5,25,0.00
2014-1-26,61.4,44.2,20.6,38.0,27.3,9.5,66,52,40,29.99,29.65,19,5,22,0.00
2014-1-27,48.6,20.6,12.6,37.0,2.8,-5.1,69,46,31,30.50,29.79,28,6,28,0.00
2014-1-28,19.0,10.7,2.1,-0.2,-3.5,-5.8,86,54,34,30.56,30.42,13,3,14,0.00
2014-1-29,30.2,15.9,0.8,6.1,2.6,-2.6,88,59,34,30.50,30.30,14,2,14,0.00
2014-1-30,40.8,28.8,17.3,12.0,8.2,5.5,60,43,26,30.30,30.00,21,4,21,0.00
2014-1-31,44.3,37.3,30.5,37.4,24.6,10.1,96,64,37,30.14,29.99,11,1,11,0.08
2014-2-1,64.7,51.9,38.4,53.9,44.1,35.8,97,76,57,29.99,29.85,20,4,20,0.20
2014-2-2,38.3,30.9,25.0,37.0,29.2,23.8,96,93,86,30.22,29.95,17,6,17,0.61
2014-2-3,30.9,24.0,21.0,23.9,20.6,17.4,95,87,66,30.36,30.18,10,1,14,0.00
2014-2-4,31.9,28.6,22.1,30.8,26.9,20.4,97,93,88,30.31,29.82,10,2,15,0.00
2014-2-5,31.4,25.5,19.8,30.6,23.2,16.6,97,91,87,30.54,29.86,0,0,0,0.00
2014-2-6,19.8,16.1,8.8,17.0,13.0,5.2,89,87,83,30.61,30.49,0,0,0,0.00
2014-2-7,19.7,13.8,4.8,17.4,10.3,2.0,91,86,72,30.58,30.38,0,0,0,0.00
2014-2-8,31.8,26.6,19.6,29.8,24.6,17.4,96,92,86,30.38,30.18,0,0,0,0.03
2014-2-9,32.6,30.1,23.7,30.6,27.9,20.2,97,92,84,30.33,30.14,18,2,18,0.02
2014-2-10,23.7,19.0,10.9,20.7,12.8,4.5,89,77,64,30.47,30.29,15,6,15,0.00
2014-2-11,25.4,14.7,5.8,14.1,7.4,0.8,83,73,57,30.53,30.34,14,4,14,0.00
2014-2-12,39.1,24.8,12.8,25.5,17.6,9.7,88,75,55,30.34,30.02,10,2,10,0.31
2014-2-13,43.6,31.7,15.8,30.3,20.9,13.9,94,68,34,30.02,29.80,14,2,14,0.32
2014-2-14,40.9,33.3,22.7,37.7,29.8,17.3,96,87,75,30.06,29.63,23,4,23,0.55
2014-2-15,31.3,23.7,15.6,26.1,17.4,11.2,89,77,62,30.25,30.05,10,2,12,0.00
2014-2-16,40.9,31.3,22.4,33.0,26.7,20.7,96,84,69,30.26,30.03,10,2,10,0.00
2014-2-17,52.1,40.0,28.5,50.5,35.5,25.2,95,84,69,30.21,29.80,18,3,21,0.09
2014-2-18,62.3,49.2,28.6,54.4,36.2,25.6,93,64,37,30.15,29.83,17,3,17,0.07
2014-2-19,60.2,55.0,47.0,57.5,39.3,35.7,94,56,42,30.05,29.83,10,2,10,0.00
2014-2-20,70.1,60.3,41.6,62.5,53.1,32.4,91,77,58,29.87,29.53,32,7,32,0.31
2014-2-21,53.1,45.1,39.1,33.2,27.4,20.4,78,51,34,30.06,29.86,24,5,24,0.00
2014-2-22,65.5,51.8,39.8,32.9,28.3,25.2,62,42,23,30.10,29.92,14,3,15,0.00
2014-2-23,47.1,39.0,29.3,37.5,31.0,20.6,87,73,59,30.30,29.96,21,6,21,0.00
2014-2-24,43.2,33.6,25.0,20.6,16.9,12.8,75,52,31,30.40,30.22,15,3,15,0.00
2014-2-25,41.7,34.1,28.1,24.3,21.2,19.0,72,60,44,30.26,30.17,16,4,16,0.00
2014-2-26,29.6,23.2,18.2,20.3,9.9,4.7,73,57,37,30.31,30.05,17,4,17,0.00
2014-2-27,37.7,27.4,19.0,18.5,11.5,6.2,74,53,29,30.15,30.01,15,3,15,0.00
2014-2-28,51.8,36.0,20.0,31.0,14.5,8.6,66,43,23,30.17,30.00,10,2,13,0.00
2014-3-1,56.2,48.8,42.0,40.6,37.9,31.0,81,66,52,30.17,30.08,10,1,10,0.00
2014-3-2,48.1,29.0,16.4,38.8,26.3,14.0,95,90,70,30.25,30.06,17,5,17,0.18
2014-3-3,23.2,16.3,11.2,18.5,13.2,8.7,92,88,79,30.44,30.17,17,4,17,0.00
2014-3-4,35.2,23.2,10.0,28.6,18.9,7.8,94,84,61,30.39,30.19,9,1,9,0.06
2014-3-5,35.2,31.9,27.9,32.3,30.3,26.9,97,94,88,30.26,30.19,8,1,8,0.11
2014-3-6,44.5,35.0,28.2,30.3,27.1,22.9,96,74,55,30.23,30.07,9,3,11,0.08
2014-3-7,53.1,38.4,25.0,35.4,30.0,23.8,96,74,46,30.09,30.00,7,1,9,0.00
2014-3-8,53.2,42.0,30.3,45.2,37.2,27.8,94,83,69,30.27,30.03,14,3,14,0.01
2014-3-9,51.9,39.9,28.0,37.5,32.2,25.7,93,75,54,30.35,30.12,8,2,14,0.00
2014-3-10,66.1,50.9,35.9,48.0,42.2,33.0,95,74,44,30.13,29.82,19,4,19,0.00
2014-3-11,75.3,61.8,47.7,58.0,51.6,45.3,92,71,47,29.83,29.50,16,3,16,0.00
2014-3-12,66.2,46.0,34.1,59.1,37.2,25.2,86,72,47,30.15,29.42,19,7,30,0.00
2014-3-13,56.9,41.6,25.7,34.1,28.6,21.8,89,62,40,30.27,30.08,14,2,14,0.00
2014-3-14,63.1,54.4,46.7,39.9,35.7,32.1,62,50,38,30.08,29.92,29,6,29,0.00
2014-3-15,70.8,53.8,33.7,45.2,36.8,26.9,96,59,21,30.09,29.91,13,2,13,0.00
2014-3-16,57.0,42.1,32.9,46.7,37.0,25.5,93,83,57,29.95,29.78,27,7,27,0.94
2014-3-17,45.2,35.1,29.5,35.2,28.2,22.5,91,76,66,29.95,29.82,21,4,21,0.00
2014-3-18,59.1,44.0,28.7,45.7,38.0,27.4,97,81,60,29.94,29.73,18,4,18,0.00
2014-3-19,58.7,51.9,38.1,48.4,42.1,34.3,88,70,50,30.16,29.79,23,6,23,0.00
2014-3-20,62.6,46.6,28.8,39.6,32.5,27.8,97,64,31,30.20,30.05,13,2,13,0.00
2014-3-21,69.9,57.1,43.9,38.8,33.7,29.6,58,43,26,30.07,29.88,27,3,27,0.00
2014-3-22,58.0,50.9,43.8,43.3,36.3,32.8,76,58,42,30.22,29.90,18,5,18,0.00
2014-3-23,47.6,40.8,33.8,33.8,26.7,19.3,74,58,37,30.37,30.21,20,6,20,0.00
2014-3-24,47.9,37.5,26.2,26.1,20.7,17.8,75,53,31,30.37,30.13,16,3,16,0.00
2014-3-25,41.7,35.6,26.4,31.0,23.2,14.5,93,63,36,30.32,30.11,25,4,25,0.00
2014-3-26,51.1,36.8,21.8,21.8,17.6,13.8,80,49,26,30.43,30.16,14,2,14,0.00
2014-3-27,66.0,52.3,44.5,50.8,35.5,20.4,90,55,37,30.16,29.79,27,6,27,0.18
2014-3-28,69.1,59.9,53.1,57.9,52.8,45.6,94,78,60,30.01,29.77,21,4,21,0.68
2014-3-29,45.7,43.6,40.6,41.1,37.8,35.4,85,80,77,30.27,30.09,18,4,18,0.53
2014-3-30,61.5,45.3,30.5,39.0,34.7,29.1,97,70,36,30.33,30.14,10,1,10,0.00
2014-3-31,73.9,59.0,40.4,42.7,38.0,34.5,83,49,25,30.15,29.89,13,3,16,0.00
2014-4-1,77.3,65.5,53.8,56.0,47.4,40.8,70,53,38,30.06,29.96,13,3,13,0.00
2014-4-2,78.8,64.7,54.7,64.4,56.2,44.7,97,75,56,30.02,29.88,19,2,19,1.95
2014-4-3,75.8,69.6,64.0,68.6,65.2,62.5,97,86,73,29.91,29.63,21,4,21,0.01
2014-4-4,73.5,55.2,45.9,64.4,46.8,33.6,97,74,53,30.13,29.58,27,6,27,1.05
2014-4-5,56.2,47.5,40.6,38.2,34.5,31.0,77,61,47,30.24,30.12,12,3,17,0.00
2014-4-6,62.0,50.7,36.0,46.2,37.6,33.4,93,64,39,30.14,29.81,10,2,15,0.00
2014-4-7,53.6,49.3,45.1,50.8,46.9,42.3,97,92,76,29.83,29.49,20,4,20,0.54
2014-4-8,55.4,48.3,42.2,50.7,45.0,40.7,96,89,75,29.97,29.78,16,2,16,0.16
2014-4-9,63.7,53.0,39.6,43.7,37.9,33.1,90,59,35,30.15,29.97,14,3,14,0.00
2014-4-10,79.2,64.8,49.9,50.5,44.3,37.8,68,49,32,30.08,29.89,27,5,27,0.00
2014-4-11,73.3,63.9,56.3,61.5,54.4,47.3,98,73,54,30.08,29.95,15,3,15,0.12
2014-4-12,80.0,68.1,55.2,60.4,56.9,53.0,97,70,47,30.08,29.87,20,4,21,0.01
2014-4-13,77.6,70.9,58.8,62.4,59.9,57.6,96,69,56,29.91,29.65,37,6,37,0.51
2014-4-14,61.8,53.7,39.2,60.0,51.9,34.8,98,94,84,30.01,29.59,17,4,17,0.99
2014-4-15,48.1,40.0,33.6,34.8,27.9,22.8,90,64,38,30.28,30.01,22,4,22,0.00
2014-4-16,59.1,44.7,29.9,36.0,28.9,24.1,92,57,29,30.35,30.15,12,2,17,0.00
2014-4-17,69.5,55.5,38.5,43.8,39.4,33.5,83,57,34,30.33,30.18,15,2,15,0.00
2014-4-18,74.5,59.0,42.8,52.2,45.2,40.6,94,64,31,30.29,30.16,15,1,15,0.00
2014-4-19,77.5,62.1,44.9,49.7,44.8,38.2,96,59,26,30.25,30.14,16,2,16,0.00
2014-4-20,81.5,63.9,43.9,50.3,45.7,41.4,93,57,27,30.23,30.08,6,1,10,0.00
2014-4-21,76.2,63.8,52.5,60.9,55.2,49.1,92,76,46,30.08,29.90,16,1,16,0.02
2014-4-22,74.1,65.4,49.2,61.9,52.7,38.9,98,68,33,29.98,29.85,17,3,17,0.19
2014-4-23,69.7,56.5,42.7,43.3,40.2,35.6,95,59,30,30.12,29.97,12,2,14,0.00
2014-4-24,78.9,64.5,46.0,60.4,46.7,38.3,96,56,32,29.98,29.63,13,2,14,0.32
2014-4-25,76.5,63.2,53.1,60.5,48.7,38.6,97,64,27,29.96,29.65,19,3,19,0.17
2014-4-26,81.7,64.7,44.9,55.0,49.0,43.0,95,61,32,29.99,29.84,13,1,13,0.00
2014-4-27,76.2,68.6,62.9,67.3,60.4,52.9,93,76,61,29.85,29.58,22,3,22,0.13
2014-4-28,70.7,64.2,60.5,66.3,62.2,59.3,97,93,82,29.71,29.49,17,3,20,2.78
2014-4-29,67.6,59.3,51.3,59.6,51.3,47.4,91,76,52,29.78,29.56,14,3,22,0.16
2014-4-30,57.2,51.6,44.9,50.3,45.8,43.3,95,81,66,29.99,29.77,14,2,14,0.00
2014-5-1,61.6,52.5,42.4,45.9,42.2,36.9,96,71,43,29.99,29.94,24,3,24,0.00
2014-5-2,63.9,53.4,41.5,47.4,44.2,40.6,97,73,48,30.00,29.91,17,2,17,0.00
2014-5-3,77.7,61.6,45.7,50.1,46.4,42.6,90,62,32,29.97,29.90,18,2,18,0.00
2014-5-4,87.4,71.5,53.7,57.1,52.1,48.1,82,54,29,30.00,29.83,17,2,17,0.00
2014-5-5,86.1,75.5,65.3,58.9,53.8,50.0,65,48,33,29.88,29.76,15,3,22,0.00
2014-5-6,85.5,73.3,57.8,64.1,56.1,51.5,83,57,33,29.86,29.78,15,2,15,0.00
2014-5-7,84.0,74.1,65.6,63.4,59.7,54.6,75,62,43,29.95,29.84,21,4,21,0.00
2014-5-8,83.6,75.7,68.5,68.6,65.0,60.8,81,70,58,30.05,29.92,17,3,17,0.00
2014-5-9,75.8,71.0,65.4,68.4,64.7,60.1,93,81,61,29.93,29.84,16,3,16,0.10
2014-5-10,81.8,71.5,64.2,69.7,65.8,62.8,96,83,61,29.98,29.89,13,2,13,0.02
2014-5-11,86.4,76.0,65.2,73.7,68.4,62.8,94,78,58,30.01,29.90,15,2,15,0.00
2014-5-12,85.0,75.7,70.5,73.2,70.1,66.9,95,83,65,30.04,29.89,18,2,18,0.23
2014-5-13,80.9,71.9,59.5,71.0,67.0,58.1,95,85,67,30.11,29.94,19,3,19,0.54
2014-5-14,59.5,54.6,49.1,58.0,53.2,48.0,97,95,90,30.12,29.88,18,4,18,1.30
2014-5-15,64.5,53.3,47.6,49.4,46.9,43.7,97,81,50,30.12,29.98,27,3,27,0.04
2014-5-16,61.8,52.2,43.6,47.6,43.1,37.0,98,74,44,30.13,30.04,19,3,19,0.01
2014-5-17,65.7,55.2,46.9,48.3,43.8,40.1,93,67,42,30.23,30.12,11,1,11,0.00
2014-5-18,70.2,58.2,44.8,48.3,43.5,39.0,88,61,35,30.27,30.18,10,1,12,0.00
2014-5-19,78.3,63.8,45.5,64.9,56.0,44.1,96,77,60,30.22,30.01,14,2,14,0.00
2014-5-20,83.9,73.5,64.2,65.8,62.1,58.6,88,69,45,30.07,29.93,15,3,22,0.00
2014-5-21,84.8,74.4,63.5,70.8,65.3,60.8,92,74,54,30.03,29.95,25,3,25,0.00
2014-5-22,88.0,77.5,67.4,74.6,69.1,62.1,89,76,62,30.07,29.98,12,2,12,0.00
2014-5-23,83.3,73.8,63.7,65.4,62.4,59.4,87,69,49,30.10,30.03,12,2,12,0.00
2014-5-24,81.5,72.0,64.6,63.8,60.3,57.3,84,68,50,30.14,30.04,12,2,12,0.00
2014-5-25,85.5,72.0,65.1,71.9,66.2,60.4,97,83,62,30.09,30.00,11,2,11,0.04
2014-5-26,87.2,75.4,63.4,71.7,67.1,62.8,99,78,53,30.11,29.99,10,1,10,0.00
2014-5-27,86.8,73.0,66.7,71.6,67.1,64.2,97,83,54,30.04,29.93,23,1,23,0.65
2014-5-28,82.0,72.5,64.7,70.9,67.5,64.1,98,85,64,30.00,29.91,8,1,8,0.00
2014-5-29,82.7,73.7,67.4,70.4,68.3,66.2,98,84,62,30.02,29.92,9,1,9,0.00
2014-5-30,88.0,76.5,66.7,71.7,68.3,65.7,98,78,53,30.06,29.97,10,1,10,0.00
2014-5-31,89.5,77.8,66.5,71.6,69.1,65.6,98,77,51,30.08,29.98,9,1,13,0.00
2014-6-1,86.8,75.7,69.3,76.1,70.9,67.7,96,86,64,30.07,29.98,16,1,16,0.12
2014-6-2,82.0,74.5,70.9,74.0,70.7,68.5,97,88,73,30.07,29.97,22,2,22,1.02
2014-6-3,89.3,77.6,68.8,75.2,72.1,68.2,99,84,59,30.06,29.88,12,1,12,0.00
2014-6-4,86.2,78.0,69.7,75.6,72.7,68.8,98,84,66,29.94,29.69,27,3,27,2.84
2014-6-5,76.8,72.1,68.4,72.6,69.6,67.8,99,92,80,29.91,29.76,13,2,13,0.05
2014-6-6,83.0,74.6,66.5,73.7,70.0,65.6,98,86,68,29.95,29.87,9,1,9,0.00
2014-6-7,82.2,73.4,68.3,72.6,69.3,65.5,97,88,68,29.98,29.78,10,1,10,0.08
2014-6-8,77.7,71.0,66.7,66.9,64.9,62.2,96,82,64,30.00,29.81,13,2,13,0.00
2014-6-9,76.3,70.2,65.4,69.1,66.6,63.9,97,89,75,29.95,29.76,10,2,10,0.56
2014-6-10,69.4,67.9,67.5,68.5,67.0,66.3,98,97,95,29.78,29.75,9,1,9,0.00
2014-6-11,80.1,74.1,67.6,69.9,67.5,64.8,98,81,62,29.81,29.73,14,3,14,0.06
2014-6-12,82.1,73.9,63.2,70.3,67.2,62.3,98,81,62,29.90,29.79,9,1,9,0.00
2014-6-13,78.5,70.7,58.3,68.1,59.8,45.3,95,71,32,30.03,29.86,16,3,16,0.02
2014-6-14,81.3,67.9,51.5,61.0,56.1,50.4,97,70,40,30.11,29.97,8,2,10,0.00
2014-6-15,87.8,75.7,61.0,73.4,67.1,58.1,92,76,57,30.05,29.92,14,2,14,0.00
2014-6-16,91.2,81.3,70.7,74.3,71.1,68.7,95,73,50,30.12,30.01,7,1,10,0.00
2014-6-17,90.9,82.0,73.6,75.4,72.6,69.1,91,74,57,30.08,29.99,16,2,16,0.00
2014-6-18,91.4,82.0,72.9,78.0,73.5,70.6,93,77,58,30.07,29.97,12,1,12,0.00
2014-6-19,91.9,83.5,72.3,76.7,73.5,70.4,95,73,57,30.11,29.98,12,2,12,0.00
2014-6-20,87.8,78.7,70.2,79.1,73.0,66.7,95,83,67,30.05,29.92,18,2,18,0.34
2014-6-21,90.8,79.4,69.8,76.4,72.4,68.7,97,81,56,29.97,29.86,9,0,9,0.01
2014-6-22,91.9,79.6,68.7,77.8,72.5,67.8,98,80,53,29.94,29.82,8,1,8,0.00
2014-6-23,89.4,79.1,71.3,77.9,72.3,69.6,95,81,54,29.91,29.84,15,2,15,0.00
2014-6-24,82.0,75.3,72.0,74.4,71.4,69.2,96,88,76,29.95,29.85,16,2,16,0.05
2014-6-25,86.5,77.7,69.1,72.1,69.6,65.6,98,78,53,30.03,29.94,10,1,10,0.00
2014-6-26,88.5,75.4,69.3,74.3,70.5,67.3,98,86,54,30.02,29.94,13,1,13,0.56
2014-6-27,81.8,73.8,69.6,75.0,71.5,69.0,98,93,70,30.05,29.98,14,1,14,0.39
2014-6-28,86.0,77.0,69.2,74.9,71.3,68.6,98,83,65,30.10,30.01,16,2,16,0.01
2014-6-29,77.7,73.0,68.8,71.2,69.6,67.3,95,89,78,30.12,29.99,12,2,12,0.02
2014-6-30,91.1,81.0,71.0,79.4,74.8,69.1,97,83,63,30.00,29.80,15,2,15,0.00
2014-7-1,90.9,79.8,69.4,78.8,73.9,67.3,97,83,63,29.94,29.75,21,3,21,0.56
2014-7-2,83.7,76.0,64.3,73.8,68.9,61.6,98,80,59,30.04,29.91,13,2,13,0.00
2014-7-3,73.8,67.2,59.6,63.0,60.6,58.1,96,80,66,30.21,30.03,12,2,12,0.00
2014-7-4,80.2,68.9,56.3,64.8,59.8,55.5,98,76,47,30.28,30.19,14,2,14,0.00
2014-7-5,83.5,70.2,54.9,64.7,59.1,53.1,97,72,42,30.25,30.09,9,1,9,0.00
2014-7-6,85.7,73.1,59.4,67.5,63.2,58.0,97,74,46,30.11,29.95,12,1,12,0.00
2014-7-7,89.5,78.3,65.6,77.3,70.3,62.2,90,77,61,29.97,29.82,16,2,16,0.00
2014-7-8,84.3,78.1,69.0,74.1,71.2,67.5,96,80,65,29.94,29.77,25,3,25,0.60
2014-7-9,87.8,76.9,67.8,72.0,67.1,61.9,98,75,47,30.01,29.92,10,1,10,0.00
2014-7-10,84.3,75.5,66.2,71.5,67.9,65.0,98,79,59,30.11,30.01,10,2,11,0.00
2014-7-11,91.8,77.7,63.7,72.6,67.9,62.8,98,75,44,30.17,30.08,6,1,6,0.00
2014-7-12,92.0,79.3,67.4,76.3,71.9,65.9,97,80,56,30.16,30.02,10,1,10,0.00
2014-7-13,92.3,83.2,72.3,78.6,74.6,70.5,94,77,58,30.04,29.91,15,2,15,0.00
2014-7-14,84.2,77.6,70.5,77.7,73.6,68.7,96,88,75,29.97,29.82,13,2,13,0.77
2014-7-15,76.8,69.6,58.7,69.5,59.8,53.5,97,73,49,30.00,29.89,12,2,12,0.00
2014-7-16,77.3,65.7,54.8,61.2,57.4,53.9,98,77,50,30.06,29.99,11,1,11,0.00
2014-7-17,79.6,68.4,54.7,63.1,58.9,53.8,98,75,45,30.11,30.03,11,1,11,0.00
2014-7-18,78.1,69.8,63.4,64.8,61.4,58.3,93,76,58,30.11,30.02,7,1,7,0.00
2014-7-19,79.2,70.1,62.5,67.6,64.6,61.0,96,84,64,30.02,29.98,13,2,13,0.00
2014-7-20,83.8,71.8,58.7,68.0,62.9,58.1,98,77,45,30.07,29.98,10,1,10,0.00
2014-7-21,88.0,74.2,59.7,72.1,66.1,58.8,98,79,51,30.10,30.01,9,1,9,0.00
2014-7-22,91.5,78.7,64.7,75.1,70.5,63.8,98,78,54,30.09,30.00,9,1,9,0.00
2014-7-23,81.8,75.2,69.4,74.8,71.4,68.2,97,88,77,30.10,29.92,11,2,16,0.03
2014-7-24,80.5,69.9,59.4,69.7,61.5,55.5,93,76,54,30.06,29.99,14,3,14,0.00
2014-7-25,82.8,70.2,56.7,65.9,61.8,55.7,98,77,52,30.08,29.89,11,1,11,0.00
2014-7-26,92.5,78.7,63.8,78.7,71.8,62.2,97,80,62,29.99,29.85,14,2,14,0.00
2014-7-27,91.0,83.8,76.5,81.0,75.2,63.5,92,76,55,29.92,29.81,18,4,18,0.00
2014-7-28,81.2,73.6,63.9,66.5,62.8,58.4,86,69,56,30.07,29.92,12,2,12,0.00
2014-7-29,79.0,67.2,53.9,60.6,56.6,52.8,97,72,43,30.13,30.06,11,1,11,0.00
2014-7-30,78.5,67.1,54.4,65.6,59.8,53.6,97,79,51,30.12,30.04,7,1,7,0.00
2014-7-31,83.3,71.1,58.7,66.4,62.9,57.8,98,78,51,30.10,30.03,10,1,10,0.00
2014-8-1,88.0,73.9,61.4,69.3,64.8,60.3,98,76,44,30.08,30.00,8,1,8,0.00
2014-8-2,87.6,76.1,65.7,69.0,65.9,62.6,93,73,46,30.10,30.02,13,2,13,0.00
2014-8-3,87.8,74.9,61.4,69.0,64.0,60.2,98,72,44,30.13,30.02,13,2,13,0.00
2014-8-4,89.9,76.0,62.4,68.0,63.0,58.4,96,68,37,30.10,30.00,11,1,11,0.00
2014-8-5,88.7,75.3,60.4,71.2,66.0,59.3,97,75,50,30.07,29.97,13,1,13,0.00
2014-8-6,92.8,78.6,66.4,75.5,70.7,65.5,98,79,46,30.02,29.94,10,1,10,0.00
2014-8-7,88.5,75.9,69.4,73.8,70.7,67.3,95,85,58,29.99,29.87,17,1,17,0.06
2014-8-8,85.8,76.1,69.9,78.0,72.9,68.4,97,90,75,29.95,29.85,11,1,11,0.29
2014-8-9,87.7,78.4,72.7,76.9,74.1,71.2,98,87,67,29.97,29.88,10,1,10,0.00
2014-8-10,87.8,77.2,69.9,75.5,72.6,69.0,98,87,64,30.00,29.89,9,1,9,0.00
2014-8-11,86.5,77.7,71.0,76.4,72.8,69.5,98,86,64,29.93,29.83,18,2,18,0.29
2014-8-12,82.5,73.8,59.9,69.9,63.8,57.5,97,73,48,30.02,29.87,16,2,16,0.00
2014-8-13,82.8,68.9,55.0,63.8,59.0,54.1,98,74,46,30.09,30.00,12,1,12,0.00
2014-8-14,83.9,70.3,55.3,65.3,60.6,54.5,98,74,46,30.10,29.99,11,1,11,0.00
2014-8-15,86.3,73.0,58.4,69.0,63.8,57.6,98,76,48,30.07,29.96,8,1,8,0.00
2014-8-16,83.0,74.6,65.7,71.8,67.6,63.8,95,80,62,30.01,29.89,10,1,10,0.00
2014-8-17,87.3,78.3,71.3,77.9,72.6,68.4,97,83,66,29.91,29.79,24,2,24,0.76
2014-8-18,86.1,76.9,70.6,74.9,71.9,69.7,97,86,63,29.89,29.79,6,1,8,0.00
2014-8-19,91.5,78.2,70.7,78.7,73.5,68.7,99,87,62,29.86,29.77,14,1,14,0.00
2014-8-20,93.4,82.0,73.4,79.5,75.3,71.0,98,82,58,30.02,29.82,13,2,13,0.01
2014-8-21,94.2,82.7,72.9,76.2,73.2,68.4,97,75,45,30.07,29.96,16,2,16,0.00
2014-8-22,93.6,83.3,74.8,79.2,75.4,73.2,95,79,54,30.04,29.92,9,1,9,0.00
2014-8-23,92.8,81.8,75.2,81.3,76.6,72.8,94,85,66,29.98,29.87,15,1,15,0.38
2014-8-24,93.9,81.7,71.5,80.7,75.9,70.9,98,84,61,29.97,29.89,10,1,10,0.16
2014-8-25,94.4,82.2,71.5,78.9,74.5,70.6,98,80,51,30.02,29.94,11,1,11,0.00
2014-8-26,94.5,80.3,71.4,79.8,74.3,69.2,98,84,55,30.10,29.99,25,1,25,0.09
2014-8-27,94.0,80.4,70.9,78.1,73.3,69.7,98,81,52,30.09,29.98,16,1,16,0.01
2014-8-28,92.7,78.5,71.8,78.0,73.2,70.4,97,85,52,30.02,29.94,14,1,14,0.00
2014-8-29,93.3,80.5,69.0,74.9,69.1,63.5,99,72,38,29.99,29.89,12,1,12,0.00
2014-8-30,84.0,75.2,72.5,75.6,71.4,68.7,98,89,72,30.01,29.96,20,1,20,0.49
2014-8-31,86.5,76.5,71.4,75.7,72.7,70.5,98,89,64,30.00,29.94,9,1,12,0.16
2014-9-1,87.8,79.7,73.8,76.1,73.8,72.6,96,83,63,30.00,29.87,16,3,19,0.00
2014-9-2,86.2,79.9,70.7,75.4,72.7,69.2,96,80,59,29.99,29.90,17,3,17,0.00
2014-9-3,89.5,77.2,67.6,74.5,70.0,66.7,99,81,53,30.04,29.94,7,1,7,0.00
2014-9-4,93.7,79.5,67.0,74.0,70.2,65.9,98,76,43,30.07,30.00,8,1,9,0.00
2014-9-5,92.3,76.2,70.1,79.5,71.7,68.5,97,87,58,30.11,29.96,27,1,36,0.79
2014-9-6,77.5,72.1,67.1,72.3,68.5,63.3,97,88,77,30.12,30.01,14,3,14,0.00
2014-9-7,82.0,71.1,61.0,66.0,62.1,57.3,93,75,49,30.13,30.03,14,3,14,0.00
2014-9-8,84.7,69.0,56.9,62.2,58.3,52.2,96,72,34,30.09,29.99,8,1,9,0.00
2014-9-9,88.5,73.5,56.4,70.8,64.2,55.6,98,75,49,30.06,29.89,10,1,11,0.00
2014-9-10,88.5,81.0,73.9,76.7,73.9,69.1,88,79,67,29.89,29.75,19,3,19,0.02
2014-9-11,75.3,72.1,70.7,72.4,70.7,69.7,97,95,88,29.93,29.84,12,2,12,0.65
2014-9-12,62.1,60.4,58.5,59.1,57.5,55.6,91,90,89,30.20,30.12,11,2,12,0.01
2014-9-13,67.7,57.7,48.4,56.0,50.4,46.1,93,78,49,30.33,30.19,18,4,18,0.00
2014-9-14,76.3,59.7,46.8,57.2,51.0,45.4,96,76,43,30.29,30.17,10,1,11,0.00
2014-9-15,77.6,64.0,51.7,64.2,58.4,50.6,97,83,59,30.20,30.06,6,1,8,0.00
2014-9-16,70.3,63.6,51.0,65.6,58.2,49.6,97,83,63,30.17,30.07,15,3,15,0.00
2014-9-17,72.4,59.1,46.0,61.9,54.9,45.5,98,87,61,30.09,29.94,6,1,11,0.00
2014-9-18,76.3,65.9,57.5,62.9,59.6,55.4,97,81,56,30.04,29.95,12,1,12,0.00
2014-9-19,84.0,67.9,55.4,67.2,59.6,53.1,96,77,50,30.08,29.99,10,1,10,0.00
2014-9-20,85.6,72.5,59.7,70.9,65.8,58.8,98,81,55,30.08,29.94,10,2,17,0.00
2014-9-21,81.0,72.6,59.8,71.5,61.7,50.1,92,71,37,30.10,29.90,17,2,17,0.00
2014-9-22,73.3,60.5,48.8,55.7,51.0,46.3,96,74,40,30.24,30.10,15,2,15,0.00
2014-9-23,77.1,59.7,44.9,53.2,49.2,43.6,98,72,38,30.30,30.19,15,1,15,0.00
2014-9-24,83.3,63.5,45.5,62.5,54.5,43.9,97,76,44,30.30,30.19,8,1,8,0.00
2014-9-25,84.1,66.8,50.4,63.6,57.0,49.6,98,75,40,30.27,30.14,10,1,10,0.00
2014-9-26,84.2,68.6,53.4,65.3,59.5,52.3,98,76,41,30.20,30.10,13,1,13,0.00
2014-9-27,85.8,70.8,58.6,66.5,59.4,53.9,97,71,34,30.16,30.05,13,1,13,0.00
2014-9-28,84.3,70.8,63.0,69.2,64.7,58.8,97,82,54,30.12,30.01,12,1,12,0.04
2014-9-29,86.5,70.2,57.6,67.1,59.5,54.8,99,74,35,30.03,29.92,10,1,11,0.00
2014-9-30,88.4,68.7,52.5,64.2,57.1,51.7,98,72,34,29.96,29.85,7,0,8,0.00
2014-10-1,88.5,71.2,54.7,64.2,60.3,53.3,98,72,42,29.95,29.85,10,1,10,0.00
2014-10-2,81.0,73.6,67.8,72.1,67.5,61.7,92,81,72,29.91,29.61,17,2,17,0.15
2014-10-3,74.2,61.9,46.0,67.6,55.8,39.1,98,82,47,30.06,29.63,22,4,23,0.47
2014-10-4,56.7,46.7,37.3,42.9,37.3,31.5,96,73,40,30.06,29.95,25,3,25,0.01
2014-10-5,75.1,56.5,35.3,56.4,44.5,33.8,96,68,40,29.95,29.73,17,2,18,0.00
2014-10-6,73.6,64.6,57.0,60.1,56.6,52.6,93,77,55,29.85,29.72,17,3,17,0.00
2014-10-7,78.6,68.5,59.1,67.2,63.1,57.4,95,84,65,29.94,29.80,24,3,24,0.16
2014-10-8,81.9,65.6,51.9,62.7,52.8,44.5,98,69,32,30.12,29.94,10,0,10,0.00
2014-10-9,83.1,68.6,57.3,70.2,63.5,54.7,97,85,63,30.12,29.95,13,1,26,0.95
2014-10-10,65.7,61.2,54.4,64.8,60.6,53.6,99,98,97,30.02,29.89,14,3,14,0.61
2014-10-11,56.5,54.4,52.0,54.7,52.9,50.7,98,94,90,30.13,29.99,16,3,16,0.01
2014-10-12,71.3,63.4,55.4,68.0,61.4,54.0,98,94,80,30.06,29.88,9,1,9,0.11
2014-10-13,79.4,68.5,63.0,70.0,65.8,62.4,98,92,71,29.89,29.59,21,3,29,1.20
2014-10-14,63.1,58.2,54.8,62.5,56.0,52.1,98,93,81,29.75,29.53,18,4,18,0.19
2014-10-15,56.8,54.3,53.0,54.3,52.3,50.8,97,93,86,29.89,29.75,12,4,16,0.03
2014-10-16,70.2,57.9,51.7,56.9,52.7,50.1,96,84,60,29.95,29.83,11,2,11,0.00
2014-10-17,76.6,63.1,52.1,57.8,51.8,48.3,92,69,39,29.95,29.78,15,3,15,0.00
2014-10-18,64.9,55.3,43.1,50.4,47.1,41.5,95,75,54,30.19,29.95,11,2,17,0.00
2014-10-19,62.4,49.2,38.3,49.2,44.4,37.4,98,85,59,30.27,30.08,9,0,9,0.00
2014-10-20,72.6,56.8,44.0,57.7,51.1,42.8,98,83,58,30.08,29.93,16,1,16,0.00
2014-10-21,71.0,56.7,43.4,54.5,48.0,42.9,99,76,45,30.17,30.01,14,2,14,0.00
2014-10-22,63.9,50.1,40.6,48.0,43.1,38.8,97,79,51,30.31,30.17,13,1,13,0.00
2014-10-23,61.6,49.1,37.1,48.1,43.5,36.1,98,83,57,30.26,30.11,8,1,8,0.00
2014-10-24,70.8,52.6,39.2,57.9,48.4,38.4,98,87,59,30.15,30.05,8,1,8,0.00
2014-10-25,79.9,63.1,49.5,67.0,58.2,48.5,98,85,57,30.07,29.98,8,1,10,0.00
2014-10-26,84.0,66.3,52.0,67.0,59.5,51.5,99,81,53,30.02,29.87,7,1,9,0.01
2014-10-27,81.6,72.1,64.6,64.1,60.3,54.0,93,69,40,29.93,29.82,20,3,20,0.00
2014-10-28,69.7,61.1,51.3,63.6,57.2,50.2,97,87,73,30.11,29.88,15,1,15,0.71
2014-10-29,65.2,52.0,38.7,51.6,43.2,34.3,99,76,35,30.18,30.10,15,1,15,0.01
2014-10-30,64.3,48.2,32.5,49.5,40.8,31.7,98,79,41,30.19,30.02,7,0,7,0.00
2014-10-31,51.5,47.5,38.2,50.4,38.4,25.1,96,73,44,30.28,30.00,25,4,25,0.03
2014-11-1,49.7,38.5,28.0,30.9,27.2,24.9,94,65,42,30.42,30.28,20,3,20,0.00
2014-11-2,57.4,39.6,22.6,34.5,27.9,21.4,97,68,27,30.52,30.33,10,1,10,0.00
2014-11-3,68.8,53.3,39.9,36.8,33.5,30.0,78,50,24,30.39,30.22,16,2,16,0.00
2014-11-4,61.6,56.1,52.5,54.2,47.0,35.3,97,73,51,30.23,30.11,13,2,13,0.43
2014-11-5,54.3,52.7,51.0,53.0,51.6,49.8,98,96,90,30.23,30.09,11,1,13,0.13
2014-11-6,56.4,48.4,37.5,51.0,40.4,31.8,97,75,53,30.29,30.03,18,4,26,0.00
2014-11-7,54.2,39.8,28.3,35.3,32.1,27.1,97,76,43,30.28,30.01,10,1,10,0.00
2014-11-8,58.0,44.0,31.6,45.1,37.7,30.6,96,79,62,30.12,29.91,16,2,16,0.00
2014-11-9,57.9,41.3,27.4,40.4,34.2,26.7,98,78,46,30.12,29.94,12,1,12,0.00
2014-11-10,70.2,55.3,38.9,49.3,41.6,35.1,87,63,37,29.95,29.72,18,3,22,0.00
2014-11-11,61.8,49.3,34.4,57.0,42.7,28.3,94,79,56,30.22,29.79,18,4,18,0.08
2014-11-12,35.7,33.5,28.9,29.4,26.6,21.9,82,76,70,30.40,30.22,20,4,20,0.00
2014-11-13,33.4,29.5,24.4,22.3,17.0,14.3,72,60,46,30.45,30.38,12,3,16,0.00
2014-11-14,36.4,26.7,19.9,20.9,18.0,16.2,87,71,47,30.50,30.40,13,1,14,0.00
2014-11-15,39.4,30.5,17.7,29.0,20.6,15.4,92,69,45,30.47,30.22,11,1,11,0.00
2014-11-16,39.1,35.1,32.0,35.7,32.6,28.4,96,91,79,30.25,29.96,10,1,10,0.19
2014-11-17,32.0,26.9,20.5,31.0,20.2,7.7,97,76,56,30.31,29.96,15,4,16,0.00
2014-11-18,27.2,20.6,13.3,14.4,9.9,6.1,74,63,50,30.45,30.29,18,3,18,0.00
2014-11-19,51.4,39.1,22.4,32.3,26.6,14.4,76,62,46,30.29,30.04,24,5,24,0.03
2014-11-20,43.0,30.7,19.5,24.9,22.3,17.3,93,73,47,30.36,30.20,13,1,13,0.00
2014-11-21,48.1,39.1,26.1,30.4,26.0,21.3,89,61,45,30.47,30.30,14,2,14,0.00
2014-11-22,51.9,49.2,45.8,43.2,38.5,29.9,74,67,55,30.31,30.26,10,1,10,0.00
2014-11-23,60.0,57.4,55.1,58.3,56.2,53.0,98,96,84,29.62,29.29,18,4,18,1.23
2014-11-24,62.8,50.0,40.8,59.0,41.1,33.2,94,72,53,30.02,29.31,32,6,32,0.00
2014-11-25,45.7,36.5,26.6,33.1,27.9,24.4,93,72,52,30.23,30.01,8,1,13,0.00
2014-11-26,45.1,33.9,21.2,36.8,30.1,19.7,96,87,58,30.19,29.99,18,2,18,0.14
2014-11-27,37.8,32.4,24.8,35.8,28.2,23.1,95,85,72,30.51,30.14,16,2,16,0.00
2014-11-28,49.5,37.3,25.3,33.2,28.3,23.4,95,72,47,30.47,30.06,15,3,15,0.00
2014-11-29,62.2,54.5,40.8,55.7,46.6,30.6,84,75,55,30.06,29.84,19,5,19,0.00
2014-11-30,69.8,65.7,52.0,59.8,57.7,48.9,89,76,67,30.17,29.89,26,5,26,0.00
2014-12-1,51.3,36.0,32.8,48.2,33.8,31.0,94,92,88,30.49,30.17,17,7,21,0.23
2014-12-2,37.7,35.6,33.4,35.9,33.7,31.8,97,93,87,30.40,30.23,12,3,12,0.00
2014-12-3,43.7,38.9,35.7,36.4,34.5,32.9,93,85,72,30.40,30.25,9,1,9,0.00
2014-12-4,44.7,41.1,38.4,44.2,39.9,36.3,98,95,85,30.33,30.21,10,1,10,0.13
2014-12-5,61.4,55.1,44.8,61.1,54.6,43.9,99,99,98,30.22,30.00,13,2,13,0.66
2014-12-6,60.0,45.5,41.1,59.2,42.5,36.1,98,89,82,30.55,30.00,22,6,22,0.05
2014-12-7,47.9,41.2,36.5,36.6,34.6,32.6,90,78,62,30.54,30.29,14,3,14,0.00
2014-12-8,52.7,42.4,32.9,42.9,37.9,31.5,96,85,60,30.30,30.16,13,2,13,0.00
2014-12-9,41.7,38.9,36.3,39.8,34.5,29.8,97,84,71,30.36,30.17,19,3,19,0.00
2014-12-10,42.2,36.9,32.3,34.0,31.1,27.5,89,80,62,30.38,30.26,13,2,13,0.00
2014-12-11,41.9,34.9,24.4,30.4,28.1,22.8,94,76,62,30.36,30.25,10,2,10,0.00
2014-12-12,49.3,33.3,21.6,39.4,29.9,20.4,97,88,68,30.46,30.35,6,0,8,0.00
2014-12-13,48.0,42.2,33.5,42.4,38.9,32.7,97,88,81,30.37,30.21,4,1,6,0.00
2014-12-14,48.7,46.0,45.5,46.7,42.7,41.3,94,88,85,30.22,30.17,6,0,6,0.00
2014-12-15,57.1,54.0,51.2,55.0,51.6,44.6,97,90,77,29.80,-32.77,20,5,20,0.00
2014-12-16,50.9,43.0,36.0,45.7,37.4,30.6,85,80,76,30.29,29.80,14,5,17,0.00
2014-12-17,36.4,33.7,31.5,30.9,28.8,26.6,89,82,73,30.36,30.28,10,2,10,0.00
2014-12-18,35.6,33.7,32.0,32.8,31.4,29.8,95,91,83,30.34,30.23,6,1,7,0.12
2014-12-19,39.8,35.3,32.5,32.5,30.1,28.4,89,81,71,30.34,30.25,9,2,10,0.00
2014-12-20,44.9,35.0,27.1,33.1,29.4,25.0,94,80,63,30.33,30.25,6,1,6,0.00
2014-12-21,50.2,35.8,23.5,35.6,29.9,22.2,96,81,56,30.30,29.97,10,1,10,0.00
2014-12-22,54.5,48.7,39.9,52.8,46.0,34.1,97,91,80,29.98,29.63,14,2,14,0.14
2014-12-23,54.1,49.5,44.9,53.3,48.1,42.6,98,95,86,29.79,29.64,13,2,13,0.29
2014-12-24,45.5,42.0,39.7,43.5,40.0,36.3,97,92,87,29.94,29.59,15,4,15,0.22
2014-12-25,51.4,42.6,36.4,38.7,35.7,32.6,90,77,57,30.19,29.94,15,3,15,0.00
2014-12-26,59.1,47.0,38.1,46.1,40.0,35.1,89,77,62,30.25,30.13,12,3,15,0.00
2014-12-27,49.7,47.1,40.1,48.9,45.5,39.1,98,94,74,30.19,30.09,14,2,14,0.54
2014-12-28,40.7,35.8,33.3,38.7,33.3,29.8,97,91,85,30.24,30.13,13,3,13,0.01
2014-12-29,36.7,33.2,31.2,31.0,29.2,27.6,90,85,79,30.40,30.22,14,4,14,0.00
2014-12-30,37.3,31.0,24.7,27.7,24.8,20.6,88,78,60,30.67,30.39,18,6,20,0.00
2014-12-31,33.4,24.2,19.7,20.5,14.9,12.2,84,68,44,30.67,30.42,16,3,16,0.00
2015-1-1,38.0,32.0,19.2,30.3,23.9,14.5,85,72,57,30.44,30.28,8,2,13,0.00
2015-1-2,40.7,37.0,34.2,39.9,34.7,28.7,97,91,76,30.38,30.10,9,1,9,0.15